| time (UTC) | temp F | wind direction | speed MPH | gust MPH | rain 1hr in | rain 24hr in | rain mn in | humidity % | barometer mb |
| 20260503220047 | 83 | 95 | 4.0 | 13.0 | 0.00 | 0.00 | 0.00 | 47 | 1017.2 |
| 20260503214538 | 84 | 98 | 4.0 | 11.0 | 0.00 | 0.00 | 0.00 | 47 | 1017.3 |
| 20260503213039 | 84 | 67 | 3.0 | 11.0 | 0.00 | 0.00 | 0.00 | 46 | 1017.9 |
| 20260503211540 | 84 | 31 | 4.0 | 16.0 | 0.00 | 0.00 | 0.00 | 45 | 1017.7 |
| 20260503210048 | 84 | 88 | 4.0 | 10.0 | 0.00 | 0.00 | 0.00 | 45 | 1018.0 |
| 20260503204557 | 84 | 87 | 4.0 | 14.0 | 0.00 | 0.00 | 0.00 | 46 | 1018.3 |
| 20260503203038 | 84 | 119 | 4.0 | 9.0 | 0.00 | 0.00 | 0.00 | 46 | 1018.5 |
| 20260503201539 | 83 | 117 | 2.0 | 12.0 | 0.00 | 0.00 | 0.00 | 46 | 1019.0 |
| 20260503200044 | 82 | 110 | 3.0 | 9.0 | 0.00 | 0.00 | 0.00 | 48 | 1019.5 |
| 20260503194545 | 82 | 91 | 4.0 | 10.0 | 0.00 | 0.00 | 0.00 | 48 | 1019.9 |
| 20260503193042 | 80 | 28 | 7.0 | 12.0 | 0.00 | 0.00 | 0.00 | 49 | 1020.0 |
| 20260503191538 | 81 | 151 | 5.0 | 10.0 | 0.00 | 0.00 | 0.00 | 48 | 1020.2 |
| 20260503190046 | 81 | 163 | 7.0 | 12.0 | 0.00 | 0.00 | 0.00 | 47 | 1020.4 |
| 20260503184537 | 83 | 0 | 3.0 | 12.0 | 0.00 | 0.00 | 0.00 | 47 | 1020.6 |
| 20260503183051 | 81 | 92 | 3.0 | 10.0 | 0.00 | 0.00 | 0.00 | 47 | 1021.0 |
| 20260503181542 | 81 | 119 | 6.0 | 11.0 | 0.00 | 0.00 | 0.00 | 48 | 1021.3 |
| 20260503180044 | 81 | 52 | 2.0 | 12.0 | 0.00 | 0.00 | 0.00 | 50 | 1021.5 |
| 20260503174540 | 81 | 68 | 4.0 | 10.0 | 0.00 | 0.00 | 0.00 | 49 | 1021.6 |
| 20260503173101 | 80 | 79 | 3.0 | 13.0 | 0.00 | 0.00 | 0.00 | 51 | 1022.0 |
| 20260503171546 | 79 | 104 | 5.0 | 12.0 | 0.00 | 0.00 | 0.00 | 52 | 1022.3 |
| 20260503081551 | 64 | 0 | 0.0 | 0.0 | 0.00 | 0.01 | 0.00 | 78 | 1021.1 |
| 20260503071541 | 65 | 0 | 0.0 | 1.0 | 0.00 | 0.01 | 0.00 | 75 | 1021.3 |
| 20260503054540 | 68 | 0 | 0.0 | 0.0 | 0.00 | 0.01 | 0.00 | 70 | 1022.0 |
| 20260503053041 | 68 | 0 | 0.0 | 2.0 | 0.00 | 0.01 | 0.00 | 68 | 1022.1 |
| 20260503051540 | 68 | 95 | 1.0 | 4.0 | 0.00 | 0.01 | 0.00 | 68 | 1022.0 |
| 20260503050040 | 67 | 0 | 0.0 | 2.0 | 0.00 | 0.01 | 0.00 | 69 | 1022.0 |
| 20260503044541 | 67 | 0 | 0.0 | 2.0 | 0.00 | 0.01 | 0.01 | 70 | 1022.1 |
| 20260503043042 | 67 | 0 | 0.0 | 2.0 | 0.00 | 0.01 | 0.01 | 70 | 1021.9 |
| 20260503041543 | 67 | 0 | 0.0 | 1.0 | 0.00 | 0.01 | 0.01 | 70 | 1021.7 |
| 20260503040042 | 67 | 0 | 0.0 | 2.0 | 0.00 | 0.01 | 0.01 | 70 | 1021.5 |
| 20260503034538 | 67 | 85 | 0.0 | 3.0 | 0.00 | 0.01 | 0.01 | 70 | 1021.7 |
| 20260503033034 | 67 | 0 | 0.0 | 2.0 | 0.00 | 0.01 | 0.01 | 70 | 1021.7 |
| 20260503031548 | 67 | 85 | 0.0 | 2.0 | 0.00 | 0.01 | 0.01 | 69 | 1021.5 |
| 20260503030041 | 67 | 85 | 1.0 | 3.0 | 0.00 | 0.01 | 0.01 | 68 | 1021.3 |
| 20260503024543 | 67 | 79 | 0.0 | 3.0 | 0.00 | 0.01 | 0.01 | 68 | 1020.8 |
| 20260503023056 | 68 | 78 | 1.0 | 3.0 | 0.00 | 0.01 | 0.01 | 67 | 1020.6 |
| 20260503021543 | 68 | 0 | 0.0 | 3.0 | 0.00 | 0.01 | 0.01 | 66 | 1020.3 |
| 20260503020046 | 69 | 61 | 0.0 | 5.0 | 0.00 | 0.01 | 0.01 | 64 | 1020.3 |
| 20260503014546 | 70 | 56 | 3.0 | 8.0 | 0.00 | 0.01 | 0.01 | 62 | 1020.0 |
| 20260503013043 | 70 | 32 | 1.0 | 5.0 | 0.00 | 0.01 | 0.01 | 61 | 1019.9 |
| 20260503011541 | 71 | 50 | 4.0 | 10.0 | 0.00 | 0.01 | 0.01 | 59 | 1019.6 |
| 20260503010039 | 72 | 5 | 4.0 | 10.0 | 0.00 | 0.01 | 0.01 | 56 | 1019.4 |
| 20260503004539 | 73 | 360 | 8.0 | 14.0 | 0.00 | 0.01 | 0.01 | 54 | 1019.3 |
| 20260503003041 | 74 | 51 | 4.0 | 14.0 | 0.00 | 0.01 | 0.01 | 55 | 1019.2 |
| 20260503001557 | 75 | 61 | 7.0 | 13.0 | 0.00 | 0.01 | 0.01 | 55 | 1019.3 |
| 20260503000109 | 76 | 26 | 5.0 | 11.0 | 0.00 | 0.01 | 0.01 | 55 | 1019.2 |
| 20260502234542 | 76 | 38 | 6.0 | 11.0 | 0.00 | 0.01 | 0.01 | 55 | 1018.9 |
| 20260502233042 | 76 | 60 | 6.0 | 16.0 | 0.00 | 0.01 | 0.01 | 55 | 1018.8 |
| 20260502231547 | 76 | 33 | 7.0 | 16.0 | 0.00 | 0.01 | 0.01 | 56 | 1018.7 |
| 20260502230038 | 75 | 65 | 5.0 | 14.0 | 0.00 | 0.01 | 0.01 | 57 | 1018.6 |
| 20260502224556 | 76 | 337 | 6.0 | 14.0 | 0.00 | 0.01 | 0.01 | 57 | 1018.8 |
| 20260502223042 | 75 | 19 | 8.0 | 16.0 | 0.00 | 0.01 | 0.01 | 57 | 1018.7 |
| 20260502221540 | 76 | 23 | 7.0 | 16.0 | 0.00 | 0.01 | 0.01 | 58 | 1018.6 |